Pleasantville, NJ

8:15 AM EST on December 03, 2016 (GMT -0500)
Atlantic City International

Weather History for KACY - May, 2013

Change the Weather History Date:

Sunday, May 12, 2013

  Actual Average Record
Temperature  
Mean Temperature 57 °F 60 °F  
Max Temperature 67 °F 70 °F 90 °F (1959)
Min Temperature 47 °F 50 °F 34 °F (1969)
Degree Days  
Heating Degree Days 8 6  
Month to date heating degree days 107 93  
Since 1 July heating degree days 4746 4797  
Cooling Degree Days 0 1  
Month to date cooling degree days 4 12  
Year to date cooling degree days 19 21  
Growing Degree Days 10 (Base 50)    
Moisture  
Dew Point 45 °F    
Average Humidity 61    
Maximum Humidity 93    
Minimum Humidity 28    
Precipitation  
Precipitation 0.14 in 0.10 in 2.02 in (1932)
Month to date precipitation 1.77 1.22  
Year to date precipitation 16.63 15.15  
Snow  
Snow 0.00 in 0.00 in 0.00 in (1903)
Month to date snowfall 0.0 0.0  
Since 1 July snowfall 14.6 16.5  
Snow Depth -    
Sea Level Pressure  
Sea Level Pressure 29.80 in    
Wind  
Wind Speed 12 mph (WNW)    
Max Wind Speed 26 mph    
Max Gust Speed 34 mph    
Visibility 10 miles    
Events Rain    
T = Trace of Precipitation, MM = Missing Value Source: NWS Daily Summary

Daily Weather History Graph

Daily Weather History Graph

Search for Another Location

Airport or City:

Trip Planner

Search our weather history database for the weather conditions in past years. The results will help you decide how hot, cold, wet, or windy it might be!

Date:

Astronomy

May. 12, 2013 Rise Set
Actual Time 5:47 AM EDT 8:02 PM EDT
Civil Twilight 5:16 AM EDT 8:32 PM EDT
Nautical Twilight 4:39 AM EDT 9:10 PM EDT
Astronomical Twilight 3:59 AM EDT 9:50 PM EDT
Moon 7:40 AM EDT (5/12) 10:27 PM EDT (5/12)
Length of Visible Light 15h 15m
Length of Day
14h 15m
Waxing Crescent, 6% of the Moon is Illuminated
May 12
Waxing Crescent
May 18
First Quarter
May 25
Full
May 31
Last Quarter
Jun 8
New

Hourly Weather History & Observations

Time (EDT) Temp. Dew Point Humidity Pressure Visibility Wind Dir Wind Speed Gust Speed Precip Events Conditions
12:54 AM 63.0 °F 60.1 °F 90% 29.74 in 10.0 mi WSW 5.8 mph - 0.02 in   Clear
1:54 AM 62.1 °F 60.1 °F 93% 29.72 in 10.0 mi Calm Calm - 0.00 in Rain Light Rain
2:54 AM 62.1 °F 59.0 °F 90% 29.74 in 6.0 mi WSW 6.9 mph - 0.03 in Rain Rain
3:05 AM 62.1 °F 59.0 °F 90% 29.74 in 4.0 mi WSW 5.8 mph - 0.04 in Rain Light Rain
3:37 AM 61.0 °F 59.0 °F 93% 29.75 in 9.0 mi NW 4.6 mph - 0.07 in Rain Light Rain
3:54 AM 60.1 °F 57.0 °F 90% 29.73 in 10.0 mi NW 12.7 mph - 0.08 in Rain Light Rain
4:15 AM 59.0 °F 55.9 °F 90% 29.72 in 10.0 mi NW 5.8 mph - 0.02 in Rain Light Rain
4:54 AM 59.0 °F 55.9 °F 90% 29.74 in 10.0 mi West 4.6 mph - 0.02 in   Overcast
5:54 AM 59.0 °F 55.9 °F 90% 29.75 in 9.0 mi West 4.6 mph - 0.00 in Rain Light Rain
6:54 AM 57.9 °F 54.0 °F 87% 29.76 in 10.0 mi WNW 6.9 mph - 0.01 in   Overcast
7:54 AM 57.9 °F 54.0 °F 87% 29.76 in 10.0 mi NW 6.9 mph - N/A   Scattered Clouds
8:54 AM 57.9 °F 51.1 °F 78% 29.78 in 10.0 mi WNW 6.9 mph - N/A   Overcast
9:54 AM 61.0 °F 50.0 °F 67% 29.76 in 10.0 mi WNW 12.7 mph - N/A   Overcast
10:54 AM 63.0 °F 50.0 °F 63% 29.77 in 10.0 mi West 11.5 mph - N/A   Scattered Clouds
11:54 AM 64.9 °F 48.0 °F 54% 29.77 in 10.0 mi West 12.7 mph 20.7 mph N/A   Mostly Cloudy
12:54 PM 66.0 °F 45.0 °F 47% 29.77 in 10.0 mi West 15.0 mph 25.3 mph N/A   Mostly Cloudy
1:54 PM 66.0 °F 39.9 °F 38% 29.77 in 10.0 mi West 16.1 mph 24.2 mph N/A   Partly Cloudy
2:54 PM 66.0 °F 37.0 °F 34% 29.77 in 10.0 mi West 16.1 mph 33.4 mph N/A   Clear
3:54 PM 64.9 °F 34.0 °F 32% 29.78 in 10.0 mi WNW 21.9 mph 29.9 mph N/A   Clear
4:54 PM 64.0 °F 30.0 °F 28% 29.81 in 10.0 mi WNW 25.3 mph 32.2 mph N/A   Clear
5:54 PM 62.1 °F 30.9 °F 31% 29.83 in 10.0 mi WNW 20.7 mph 29.9 mph N/A   Clear
6:54 PM 60.1 °F 28.0 °F 30% 29.86 in 10.0 mi WNW 18.4 mph 25.3 mph N/A   Clear
7:54 PM 57.0 °F 28.0 °F 33% 29.89 in 10.0 mi WNW 12.7 mph - N/A   Clear
8:54 PM 54.0 °F 28.9 °F 38% 29.92 in 10.0 mi West 8.1 mph - N/A   Clear
9:54 PM 53.1 °F 27.0 °F 37% 29.96 in 10.0 mi West 6.9 mph - N/A   Clear
10:54 PM 53.1 °F 27.0 °F 37% 29.97 in 10.0 mi WNW 13.8 mph - N/A   Clear
11:54 PM 50.0 °F 28.0 °F 43% 29.99 in 10.0 mi WNW 11.5 mph - N/A   Clear